This demonstration page uses our WeatherBlox Daily Observations layout. Learn more.

Left ArrowRight Arrow

36.19886, -115.1175

Hourly Observations for August 29, 2017

Temp ( °F °C ) Dew Point ( °F °C ) Humidity (%) Winds ( mph kmh ) Pressure ( in mb ) Visibility ( mi km ) Precip ( " mm )
12:53 am 00:53 Clear 88 31.1 45 7.2 22 22 NNW 6 9 29.84 1011 10 16 N/A
1:53 am 01:53 Clear 86 30 46 7.8 25 25 NNW 5 7 29.84 1011 10 16 N/A
2:53 am 02:53 Clear 85 29.4 48 8.9 28 28 N 6 9 29.84 1011 10 16 N/A
3:53 am 03:53 Clear 86 30 47 8.3 26 26 N N/A 29.84 1011 10 16 N/A
4:53 am 04:53 Clear 83 28.3 48 8.9 30 30 WNW 3 6 29.85 1011 10 16 N/A
5:53 am 05:53 Clear 85 29.4 44 6.7 24 24 NNW 9 15 29.87 1011 10 16 N/A
6:53 am 06:53 Sunny 85 29.4 43 6.1 23 23 N 8 13 29.87 1012 10 16 N/A
7:53 am 07:53 Sunny 88 31.1 44 6.7 22 22 NNW 6 9 29.89 1012 10 16 N/A
8:53 am 08:53 Sunny 92 33.3 44 6.7 19 19 NNE 5 7 29.91 1013 10 16 N/A
9:53 am 09:53 Sunny 96 35.6 46 7.8 18 18 NE 5 7 29.91 1013 10 16 N/A
10:53 am 10:53 Sunny 97 36.1 45 7.2 17 17 SSE 6 9 29.91 1013 10 16 N/A
11:53 am 11:53 Sunny 102 38.9 45 7.2 14 14 ESE 8 13 29.88 1012 10 16 N/A
12:53 pm 12:53 Sunny 104 40 43 6.1 12 12 N N/A 29.86 1011 10 16 N/A
1:53 pm 13:53 Sunny 104 40 42 5.6 12 12 SW 5 7 29.83 1010 10 16 N/A
2:53 pm 14:53 Sunny 107 41.7 42 5.6 11 11 undefined N/A 29.81 1009 10 16 N/A
3:53 pm 15:53 Sunny 103 39.4 45 7.2 14 14 SW 25 41 29.82 1010 10 16 N/A
4:00 pm 16:00 Sunny 102 38.9 45 7.2 14 14 WSW 30 48 29.68 1005 10 16 N/A
4:53 pm 16:53 Sunny 101 38.3 45 7.2 15 15 W 16 26 29.81 1010 10 16 N/A
5:53 pm 17:53 Sunny 101 38.3 38 3.3 11 11 W 13 20 29.79 1009 10 16 N/A
6:53 pm 18:53 Sunny 101 38.3 37 2.8 11 11 NNE 5 7 29.78 1009 10 16 N/A
7:53 pm 19:53 Clear 99 37.2 41 5 14 14 W 3 6 29.79 1009 10 16 N/A
8:53 pm 20:53 Clear 98 36.7 42 5.6 15 15 N N/A 29.81 1010 10 16 N/A
9:53 pm 21:53 Clear 95 35 43 6.1 17 17 SE 6 9 29.84 1011 10 16 N/A
10:53 pm 22:53 Clear 94 34.4 46 7.8 19 19 W 7 11 29.83 1010 10 16 N/A
11:53 pm 23:53 Clear 92 33.3 46 7.8 21 21 WNW 6 9 29.82 1010 10 16 N/A

Powered by AerisWeather